This is the latest recevied weather packets stored in our database for station/object K4PAD. If no packets are shown the sender has not sent any weather packets the latest 10 day(s).
| Time | Temp. | Humidity | Pressure | Rain* | Wind** | Luminosity | Snow |
|---|---|---|---|---|---|---|---|
| 1788136273 | 80° F | 84% | 764.5 mmHg | 0 in | - | 0 W/m² | - |
| 1788135971 | 80° F | 84% | 764.5 mmHg | 0 in | - | 0 W/m² | - |
| 1788135667 | 81° F | 84% | 764.4 mmHg | 0 in | - | 0 W/m² | - |
| 1788135362 | 81° F | 84% | 764.2 mmHg | 0 in | - | 0 W/m² | - |
| 1788135058 | 81° F | 84% | 764.3 mmHg | 0 in | - | 0 W/m² | - |
| 1788134755 | 81° F | 84% | 764.3 mmHg | 0 in | - | 0 W/m² | - |
| 1788134454 | 81° F | 83% | 764.2 mmHg | 0 in | - | 1 W/m² | - |
| 1788134153 | 82° F | 83% | 764.3 mmHg | 0 in | - | 1 W/m² | - |
| 1788133848 | 82° F | 82% | 764.4 mmHg | 0 in | - | 3 W/m² | - |
| 1788133543 | 82° F | 81% | 764.3 mmHg | 0 in | - | 5 W/m² | - |
| 1788133238 | 82° F | 81% | 764.3 mmHg | 0 in | - | 8 W/m² | - |
| 1788132933 | 83° F | 80% | 764.3 mmHg | 0 in | - | 12 W/m² | - |
| 1788132629 | 83° F | 79% | 764.3 mmHg | 0 in | - | 16 W/m² | - |
| 1788132325 | 83° F | 79% | 764.2 mmHg | 0 in | - | 22 W/m² | - |
| 1788132021 | 83° F | 78% | 764.2 mmHg | 0 in | - | 25 W/m² | - |
| 1788131717 | 83° F | 78% | 764.5 mmHg | 0 in | - | 37 W/m² | - |
| 1788131416 | 83° F | 78% | 764.2 mmHg | 0 in | - | 31 W/m² | - |
| 1788131111 | 83° F | 78% | 764.4 mmHg | 0 in | - | 35 W/m² | - |
| 1788130811 | 83° F | 77% | 764.2 mmHg | 0 in | - | 40 W/m² | - |
| 1788130507 | 84° F | 78% | 764.1 mmHg | 0 in | - | 45 W/m² | - |
| 1788130206 | 84° F | 78% | 764.1 mmHg | 0 in | - | 51 W/m² | - |
| 1788129904 | 84° F | 78% | 764 mmHg | 0 in | - | 53 W/m² | - |
| 1788129601 | 85° F | 78% | 764 mmHg | 0 in | - | 65 W/m² | - |
| 1788129298 | 85° F | 77% | 764.1 mmHg | 0 in | - | 75 W/m² | - |
| 1788128997 | 85° F | 76% | 763.9 mmHg | 0 in | - | 85 W/m² | - |
* Rain latest hour (hover to see other rain measurements)
** Current wind speed in m/s (hover to see current wind gust speed)